SCP
0 0 0 0 0 0 0 0 0 0 0 0 1 2 3 3 4 6 10 12 13 12 10 7 5 4 4 4 4 4 4 3 2 2 2 1 1 1 1 1 1 1 1 1
0 0 0 0 0 0 0 0 0 0 0 1 1 2 3 3 4 6 8 10 11 11 11 9 7 5 4 4 5 5 4 4 3 2 2 1 1 1 1 1 1 1 1 1
0 0 0 0 0 0 0 0 0 0 0 0 1 1 2 3 4 5 6 7 9 11 12 11 9 7 5 5 5 5 5 4 3 2 2 1 1 1 1 1 1 1 1 1
0 0 0 0 0 0 0 0 0 0 0 0 1 1 1 2 4 5 5 6 8 11 13 13 12 9 7 6 6 5 5 5 4 3 2 1 1 1 1 1 1 1 1 1
0 0 0 0 0 0 0 0 0 0 0 0 0 0 1 2 4 4 5 6 8 11 14 15 14 12 9 7 7 7 6 4 3 2 2 1 1 1 1 1 1 1 1 1
0 0 0 0 0 0 0 0 0 0 0 0 0 0 0 1 3 4 4 6 8 12 16 17 16 13 10 7 7 8 6 3 2 2 2 2 1 1 1 1 1 1 1 1
0 0 0 0 0 0 0 0 0 0 0 0 0 0 0 1 2 4 4 6 8 12 16 17 16 14 10 8 7 7 5 3 3 2 2 2 1 1 1 1 1 1 1 1
0 0 0 0 0 0 0 0 0 0 0 0 0 0 0 1 2 3 4 6 7 10 13 16 16 13 10 8 6 5 4 4 3 3 3 2 2 1 1 1 1 1 1 1
0 0 0 0 0 0 0 0 0 0 0 0 0 0 0 1 2 3 4 4 4 6 9 12 13 11 9 8 7 6 5 4 4 3 3 3 2 1 1 1 1 1 1 1
0 0 0 0 0 0 0 0 0 0 0 0 0 0 0 1 1 2 3 2 2 3 5 7 8 8 8 7 7 6 5 4 5 4 3 3 2 2 1 1 1 1 1 1
0 0 0 0 0 0 0 0 0 0 0 0 0 0 0 1 1 1 2 2 2 2 3 4 5 6 7 7 6 6 5 5 6 5 4 3 3 2 1 1 1 1 1 1
0 0 0 0 0 0 0 0 0 0 0 0 0 0 0 0 1 1 1 2 2 2 2 4 5 6 7 7 6 6 7 7 7 6 5 4 4 3 2 1 1 1 1 1
0 0 0 0 0 0 0 0 0 0 0 0 0 0 0 0 0 1 1 1 2 2 3 4 4 5 6 7 7 8 9 8 8 7 6 5 4 3 2 1 1 0 0 1
0 0 0 0 0 0 0 1 0 0 0 0 0 0 0 0 0 0 1 1 1 2 3 4 4 4 6 7 9 9 10 9 8 7 6 5 4 3 2 2 1 0 0 0
0 0 0 0 1 0 0 0 0 0 0 0 0 0 0 0 0 0 1 1 2 2 4 4 4 4 6 8 9 9 9 8 7 6 5 4 3 2 2 1 1 0 0 0
0 0 0 1 1 0 0 0 0 0 0 0 0 0 0 0 0 1 1 1 2 2 3 4 4 5 6 8 8 8 7 7 6 5 4 3 2 2 1 1 1 1 0 0
0 0 0 0 0 0 0 0 0 1 1 1 1 0 0 0 0 1 1 1 1 2 2 3 4 5 6 7 7 7 7 6 5 4 3 3 2 2 1 1 1 1 1 1
0 0 0 0 0 0 0 1 1 1 1 1 1 1 1 1 1 1 1 1 1 1 2 3 5 6 5 6 6 6 5 4 4 3 2 2 2 2 1 1 1 1 1 1
0 0 0 0 0 0 0 1 1 1 1 1 1 1 1 1 1 1 1 1 1 1 2 3 5 6 5 4 4 4 3 3 2 2 2 2 2 2 2 1 1 1 1 1
0 0 0 1 1 0 0 1 1 1 1 1 1 1 0 0 0 0 0 1 1 1 2 4 6 6 5 4 3 3 2 2 2 1 1 1 2 2 2 1 1 1 1 1
0 0 0 1 1 1 0 1 0 0 0 1 0 0 0 0 0 0 0 1 1 2 3 5 6 5 4 3 3 2 1 1 1 1 1 1 1 2 2 2 1 1 1 1
0 0 0 0 1 1 0 0 0 0 0 1 0 1 1 1 1 1 1 1 1 2 3 4 5 4 3 3 2 2 1 1 1 1 1 1 1 1 1 2 2 1 1 1
0 0 0 0 0 1 1 0 0 0 0 1 1 1 2 2 2 2 2 1 1 2 3 3 3 3 3 2 2 2 2 2 2 2 2 1 1 1 1 1 2 2 2 2
0 0 0 0 1 1 1 1 0 0 1 1 1 1 2 2 2 2 2 2 2 2 2 2 2 3 3 2 2 2 2 2 3 3 2 2 2 1 1 1 2 2 2 2
0 0 0 0 1 1 1 1 0 0 1 1 2 2 3 2 2 2 2 2 2 2 2 2 2 2 2 2 2 2 2 3 4 4 4 3 3 2 2 2 2 2 2 2
0 0 0 0 0 1 1 0 0 0 1 1 2 3 3 2 2 2 2 2 1 1 1 1 2 2 2 3 3 2 3 4 5 5 5 4 3 3 2 2 2 1 1 1
Wind_Speed
5 4 5 8 8 8 5 5 6 8 7 3 6 6 7 7 8 10 9 10 11 11 11 12 13 13 12 11 11 11 10 9 7 5 5 5 4 4 4 4 5 5 5 5
1 7 11 8 7 7 7 7 7 7 5 3 3 4 6 7 9 12 13 12 12 10 10 13 13 13 13 13 12 11 11 10 8 6 5 4 4 3 3 3 4 5 5 5
10 8 9 10 9 9 9 8 8 7 3 1 2 2 3 4 4 6 9 11 12 15 16 16 15 14 14 14 14 13 11 10 9 8 5 4 4 3 2 2 3 3 5 5
8 11 9 10 12 10 9 9 8 6 2 2 2 2 6 4 3 7 9 9 11 13 13 14 14 14 15 14 13 11 11 10 9 9 8 9 6 5 5 4 3 4 4 5
8 8 9 11 13 10 9 7 6 5 4 1 2 2 7 2 4 7 9 11 12 13 15 15 16 15 14 13 13 11 11 10 9 9 9 9 6 4 4 4 5 4 3 4
9 7 8 11 11 9 6 2 2 4 5 1 3 2 5 3 6 6 7 9 12 13 14 13 13 12 11 11 11 11 11 10 10 10 9 9 9 7 7 6 5 4 3 2
8 9 8 6 7 6 3 5 3 4 4 4 3 2 7 6 5 7 9 9 10 12 13 13 13 13 12 13 13 12 13 11 10 10 9 9 10 10 9 8 7 5 4 3
6 8 7 6 7 7 5 10 9 5 5 3 2 3 7 7 5 3 5 7 8 9 11 14 14 14 14 15 14 13 13 11 11 10 9 8 9 7 6 7 6 6 5 4
6 7 6 5 5 7 4 4 8 8 3 1 3 5 7 4 4 2 2 5 7 8 10 13 13 13 13 14 14 14 13 11 11 11 9 8 8 7 7 7 6 5 5 5
7 4 6 4 1 1 7 7 6 6 5 1 2 3 4 4 3 2 1 4 5 6 8 10 12 12 11 11 11 12 12 11 10 10 9 8 7 7 7 7 7 6 6 6
6 4 4 2 2 3 2 4 6 5 6 6 3 6 5 6 4 3 3 3 5 7 9 11 10 10 11 11 11 11 11 10 9 10 8 8 7 7 7 7 7 7 6 7
5 6 3 3 2 3 5 5 6 6 3 5 4 7 4 7 5 4 4 4 5 7 9 10 10 10 10 10 10 11 11 11 10 9 8 8 8 7 7 7 7 7 7 7
4 6 2 4 6 5 4 2 5 6 5 4 4 6 2 2 2 3 4 5 4 5 7 8 9 10 11 11 10 10 10 10 10 9 8 8 8 8 7 7 7 7 7 7
6 5 7 8 6 3 1 1 3 6 4 4 5 5 3 4 4 3 2 4 4 6 8 9 9 9 10 10 11 11 10 10 10 9 9 9 9 8 8 7 7 7 7 7
6 5 3 4 4 3 2 2 2 4 6 6 6 6 7 7 6 4 3 3 4 5 8 10 11 9 9 9 10 10 10 10 10 10 9 9 8 8 7 7 7 7 7 8
4 5 3 1 2 4 2 1 1 1 3 4 4 4 4 4 2 2 3 3 4 6 8 10 11 11 11 11 11 11 10 11 10 10 10 9 8 8 8 8 7 7 7 6
2 4 4 0 1 4 0 2 1 2 1 4 5 5 4 2 2 2 3 4 5 7 8 10 11 11 11 12 12 12 11 10 10 10 9 9 9 9 9 9 8 8 7 6
3 4 4 2 3 2 6 3 3 5 3 2 2 3 5 5 3 1 2 4 5 6 8 9 10 10 9 9 9 10 10 11 11 10 10 10 10 9 8 8 8 8 6 6
5 6 4 3 2 1 3 2 1 4 2 3 3 3 3 3 2 2 2 1 3 5 7 7 8 8 8 9 10 10 10 10 10 11 11 11 10 10 9 9 9 7 7 6
5 5 5 4 4 4 4 3 1 6 2 3 4 3 3 3 3 2 3 1 1 1 4 5 6 7 8 9 9 10 10 10 11 11 10 10 10 10 10 10 8 6 6 7
5 4 4 3 2 3 4 5 2 4 3 1 3 3 3 2 3 2 1 2 2 2 3 5 6 6 8 9 10 10 10 10 10 9 9 9 9 10 10 9 7 6 6 6
3 2 2 3 3 3 5 4 3 3 2 1 2 4 5 4 4 4 4 3 3 3 4 5 5 4 5 8 10 9 9 9 8 8 8 8 8 9 8 8 7 7 7 7
2 3 2 3 3 2 2 2 1 2 2 2 3 3 6 6 5 4 4 4 3 3 4 5 6 5 3 5 8 9 8 7 8 8 8 8 8 7 7 8 8 6 6 6
2 2 2 2 1 2 4 4 4 3 3 3 4 4 6 6 4 4 4 4 4 4 4 4 6 5 3 2 4 5 6 7 8 8 8 7 7 7 6 6 6 6 7 7
1 2 2 2 1 4 5 5 4 5 6 6 6 6 6 6 5 4 4 3 3 3 3 4 5 4 3 2 2 2 3 6 7 7 6 6 6 6 6 5 4 6 6 7
1 2 3 3 2 1 1 2 4 5 5 4 5 6 5 5 4 4 3 3 4 3 3 4 4 4 3 3 2 1 1 4 6 5 5 4 4 4 4 4 3 1 2 4
Wind_Direction
201 155 214 223 209 210 222 238 255 262 260 222 209 212 204 195 175 173 175 175 173 176 168 160 163 164 161 162 161 161 160 162 154 154 154 148 150 150 147 153 150 149 147 142
200 229 225 225 228 232 238 246 261 276 252 202 188 204 199 191 184 181 178 180 176 166 165 168 168 170 169 170 168 165 167 166 164 164 160 155 145 148 150 150 149 155 152 150
203 229 220 228 237 235 240 224 229 235 264 30 103 328 246 223 194 188 185 178 172 173 177 175 174 175 171 171 173 173 172 169 167 159 142 131 112 105 116 148 159 165 156 150
227 236 233 233 238 226 242 233 217 209 157 257 152 211 267 232 223 203 196 182 178 178 176 174 175 176 176 175 173 169 170 170 167 159 158 159 160 163 174 170 164 160 156 151
235 217 220 233 237 226 226 227 211 189 154 89 7 138 272 243 231 222 201 187 181 180 177 177 178 179 176 172 171 169 168 169 168 166 166 166 164 162 152 151 153 154 151 152
244 243 218 228 241 232 220 184 30 51 80 113 247 169 271 246 232 236 215 197 182 180 179 178 175 169 168 167 167 166 168 171 171 169 167 168 165 159 156 161 163 161 152 151
269 266 252 233 238 256 179 108 44 7 14 246 264 181 246 253 246 218 211 204 188 182 177 173 171 169 168 168 169 170 172 173 174 171 172 172 169 167 170 170 170 166 163 168
222 264 248 229 208 209 192 146 158 185 211 254 317 240 257 268 269 240 194 178 173 182 180 176 176 173 172 170 170 170 173 173 174 173 174 173 169 170 173 173 170 173 175 175
196 243 261 237 210 169 161 158 162 136 142 124 274 285 304 316 338 23 114 147 170 180 183 179 174 172 172 170 171 172 173 172 174 173 169 171 171 170 172 173 168 168 169 169
180 235 269 249 102 124 152 147 100 112 138 196 268 262 259 292 316 360 108 161 176 177 176 175 173 171 169 168 168 168 168 172 173 171 174 176 174 172 168 167 168 172 173 168
174 186 295 3 143 192 106 104 108 119 142 151 215 258 223 209 211 202 209 186 175 175 177 174 172 167 162 161 162 165 168 167 170 173 173 167 169 168 164 169 174 173 172 167
175 146 226 251 241 158 131 141 132 141 178 153 165 257 238 195 196 190 184 175 182 178 172 167 164 161 160 164 167 169 171 172 173 172 166 164 166 166 167 171 173 169 169 170
145 128 133 336 348 18 75 110 123 123 121 147 162 249 247 198 220 208 169 160 169 168 158 158 161 164 165 169 171 172 174 174 171 167 165 165 167 168 171 172 169 166 165 167
127 119 156 185 204 186 126 108 120 115 136 176 200 210 231 237 229 226 182 163 163 169 166 166 167 169 166 167 170 172 174 172 168 167 168 170 173 174 172 169 166 166 165 168
107 119 138 168 173 140 126 146 159 157 173 176 207 198 208 217 217 204 174 152 160 173 173 176 173 170 166 166 169 172 174 173 169 168 172 175 173 169 165 166 168 167 169 176
69 120 107 92 131 114 88 30 144 167 177 176 170 221 216 185 163 152 149 160 181 189 187 184 174 171 173 174 175 175 174 173 168 171 175 171 167 168 170 171 170 170 174 175
50 103 101 136 62 78 5 251 168 115 69 161 186 210 160 131 141 164 167 166 191 190 184 182 180 179 181 180 176 175 173 167 168 171 173 171 171 172 176 178 174 177 178 175
115 96 110 116 76 168 238 246 134 113 54 52 111 139 147 151 167 145 188 181 188 187 184 184 183 184 182 176 170 168 166 167 170 173 174 174 173 175 175 176 181 183 178 179
132 122 104 107 127 261 301 339 107 116 42 33 106 127 142 136 75 360 309 231 203 186 184 184 182 178 173 170 167 162 167 169 172 177 179 179 176 175 177 184 187 184 180 184
70 98 112 117 136 208 251 290 226 97 51 15 81 91 95 88 88 289 305 308 141 168 168 168 167 166 171 172 163 164 169 172 179 181 180 178 177 177 182 187 186 181 179 186
41 47 93 122 154 246 287 308 45 113 208 306 87 96 89 102 168 223 319 21 71 89 113 140 147 164 174 166 162 168 172 181 184 176 172 174 179 181 182 182 181 177 179 179
121 101 108 127 152 246 318 19 75 184 193 99 90 95 96 89 72 52 48 48 39 71 92 113 127 146 159 159 161 170 183 185 171 166 171 176 180 185 184 179 181 179 180 186
103 161 166 166 182 227 6 82 103 112 107 90 92 97 102 92 79 65 51 45 43 62 89 99 112 117 135 160 165 175 188 170 163 168 176 180 182 186 178 179 181 180 184 191
13 33 86 80 50 41 44 41 37 54 85 83 99 97 87 86 78 68 57 41 43 49 70 84 100 105 112 143 165 177 176 166 163 172 180 182 182 185 181 183 184 187 193 199
339 43 60 63 10 28 30 28 42 50 53 59 66 71 79 83 68 64 62 52 49 48 64 93 106 106 104 105 108 128 156 159 165 172 177 180 182 182 182 179 185 194 203 204
338 160 156 200 222 151 291 11 60 63 50 52 72 63 53 72 78 68 60 55 50 46 66 85 91 95 98 94 84 89 140 152 156 165 172 176 176 175 170 165 163 133 162 185